{"data":{"norad_id":61762,"epoch":"2026-05-25T04:40:05.979360Z","epoch_age_seconds":48411,"freshness":"FRESH","line1":"1 61762U 24199AD  26145.19451365  .00359128  50059-4  11763-2 0  9990","line2":"2 61762  97.2868  27.5581 0002323 153.0455 207.0940 15.90566243134444","mean_motion":15.90566243,"eccentricity":0.0002323,"inclination_deg":97.2868,"raan_deg":27.5581,"arg_perigee_deg":153.0455,"mean_anomaly_deg":207.094,"bstar":0.0011763,"rev_number":13444,"period_min":90.533796145704,"perigee_km":299.1457822186,"apogee_km":302.24876862296,"semimajor_km":6678.8342754208,"source":"CELESTRAK","updated_at":"2026-05-25T13:38:23.294836Z"}}